Time,TemperatureF,DewpointF,PressureIn,WindDirection,WindDirectionDegrees,WindSpeedMPH,WindSpeedGustMPH,Humidity,HourlyPrecipIn,Conditions,Clouds,dailyrainin,SoftwareType,DateUTC
2013-07-16 00:01:00,73.6,59.8,18.71,North,357,0.0,0.0,62,0.00,,---,0.00,VWS V13.01,2013-07-16 04:01:00,
2013-07-16 00:06:00,73.6,59.8,18.71,North,357,0.0,0.0,62,0.00,,---,0.00,VWS V13.01,2013-07-16 04:06:00,
2013-07-16 00:11:00,73.6,59.8,18.71,North,357,0.0,0.0,62,0.00,,---,0.00,VWS V13.01,2013-07-16 04:11:00,
2013-07-16 00:16:00,73.4,59.6,18.71,North,357,0.0,0.0,62,0.00,,---,0.00,VWS V13.01,2013-07-16 04:16:00,
2013-07-16 00:21:00,73.2,59.9,18.71,North,357,0.0,0.0,63,0.00,,---,0.00,VWS V13.01,2013-07-16 04:21:00,
2013-07-16 00:26:00,73.0,59.7,18.71,North,357,0.0,0.0,63,0.00,,---,0.00,VWS V13.01,2013-07-16 04:26:00,
2013-07-16 00:31:00,73.0,59.7,18.71,North,357,0.0,0.0,63,0.00,,---,0.00,VWS V13.01,2013-07-16 04:31:00,
2013-07-16 00:36:00,72.9,60.0,18.71,North,357,0.0,0.0,64,0.00,,---,0.00,VWS V13.01,2013-07-16 04:36:00,
2013-07-16 00:41:00,72.9,60.0,18.71,North,357,0.0,0.0,64,0.00,,---,0.00,VWS V13.01,2013-07-16 04:41:00,
2013-07-16 00:46:00,72.7,59.8,18.71,North,357,0.0,0.0,64,0.00,,---,0.00,VWS V13.01,2013-07-16 04:46:00,
2013-07-16 00:51:00,72.5,59.6,18.71,North,357,0.0,0.0,64,0.00,,---,0.00,VWS V13.01,2013-07-16 04:51:00,
2013-07-16 00:56:00,72.5,59.6,18.71,North,357,0.0,0.0,64,0.00,,---,0.00,VWS V13.01,2013-07-16 04:56:00,
2013-07-16 01:01:00,72.5,60.1,18.71,North,357,0.0,0.0,65,0.00,,---,0.00,VWS V13.01,2013-07-16 05:01:00,
2013-07-16 01:06:00,72.3,59.9,18.71,North,357,0.0,0.0,65,0.00,,---,0.00,VWS V13.01,2013-07-16 05:06:00,
2013-07-16 01:11:00,72.3,59.9,18.71,North,357,0.0,0.0,65,0.00,,---,0.00,VWS V13.01,2013-07-16 05:11:00,
2013-07-16 01:16:00,72.3,59.9,18.71,North,357,0.0,0.0,65,0.00,,---,0.00,VWS V13.01,2013-07-16 05:16:00,
2013-07-16 01:21:00,72.3,59.9,18.71,North,357,0.0,0.0,65,0.00,,---,0.00,VWS V13.01,2013-07-16 05:21:00,
2013-07-16 01:26:00,72.3,59.9,18.71,North,357,0.0,0.0,65,0.00,,---,0.00,VWS V13.01,2013-07-16 05:26:00,
2013-07-16 01:31:00,72.1,59.7,18.71,North,357,0.0,0.0,65,0.00,,---,0.00,VWS V13.01,2013-07-16 05:31:00,
2013-07-16 01:36:00,72.1,60.2,18.71,North,357,0.0,0.0,66,0.00,,---,0.00,VWS V13.01,2013-07-16 05:36:00,
2013-07-16 01:41:00,72.1,60.2,18.71,North,357,0.0,0.0,66,0.00,,---,0.00,VWS V13.01,2013-07-16 05:41:00,
2013-07-16 01:46:00,72.1,60.2,18.71,North,357,0.0,0.0,66,0.00,,---,0.00,VWS V13.01,2013-07-16 05:46:00,
2013-07-16 01:51:00,72.0,60.0,18.71,North,357,0.0,0.0,66,0.00,,---,0.00,VWS V13.01,2013-07-16 05:51:00,
2013-07-16 01:56:00,72.0,60.0,18.71,North,357,0.0,0.0,66,0.00,,---,0.00,VWS V13.01,2013-07-16 05:56:00,
2013-07-16 02:01:00,72.0,60.0,18.71,North,357,0.0,0.0,66,0.00,,---,0.00,VWS V13.01,2013-07-16 06:01:00,
2013-07-16 02:06:00,72.0,60.0,18.71,North,357,0.0,0.0,66,0.00,,---,0.00,VWS V13.01,2013-07-16 06:06:00,
2013-07-16 02:11:00,72.0,60.0,18.71,North,357,0.0,0.0,66,0.00,,---,0.00,VWS V13.01,2013-07-16 06:11:00,
2013-07-16 02:16:00,72.0,60.0,18.71,North,357,0.0,0.0,66,0.00,,---,0.00,VWS V13.01,2013-07-16 06:16:00,
2013-07-16 02:21:00,72.0,60.0,18.71,North,357,0.0,0.0,66,0.00,,---,0.00,VWS V13.01,2013-07-16 06:21:00,
2013-07-16 02:26:00,72.0,60.0,18.71,North,357,0.0,0.0,66,0.00,,---,0.00,VWS V13.01,2013-07-16 06:26:00,
2013-07-16 02:31:00,72.0,60.0,18.71,North,357,0.0,0.0,66,0.00,,---,0.00,VWS V13.01,2013-07-16 06:31:00,
2013-07-16 02:36:00,72.0,60.0,18.71,North,357,0.0,0.0,66,0.00,,---,0.00,VWS V13.01,2013-07-16 06:36:00,
2013-07-16 02:41:00,72.0,60.0,18.71,North,357,0.0,0.0,66,0.00,,---,0.00,VWS V13.01,2013-07-16 06:41:00,
2013-07-16 02:46:00,71.8,59.8,18.71,North,357,0.0,0.0,66,0.00,,---,0.00,VWS V13.01,2013-07-16 06:46:00,
2013-07-16 02:51:00,71.6,59.2,18.71,North,357,0.0,0.0,65,0.00,,---,0.00,VWS V13.01,2013-07-16 06:51:00,
2013-07-16 02:56:00,71.6,59.2,18.71,North,357,0.0,0.0,65,0.00,,---,0.00,VWS V13.01,2013-07-16 06:56:00,
2013-07-16 03:01:00,71.4,59.5,18.71,North,357,0.0,0.0,66,0.00,,---,0.00,VWS V13.01,2013-07-16 07:01:00,
2013-07-16 03:06:00,71.4,59.5,18.71,North,357,0.0,0.0,66,0.00,,---,0.00,VWS V13.01,2013-07-16 07:06:00,
2013-07-16 03:11:00,71.4,59.0,18.71,North,357,0.0,0.0,65,0.00,,---,0.00,VWS V13.01,2013-07-16 07:11:00,
2013-07-16 03:16:00,71.2,58.9,18.71,North,357,0.0,0.0,65,0.00,,---,0.00,VWS V13.01,2013-07-16 07:16:00,
2013-07-16 03:21:00,71.4,59.0,18.71,North,357,0.0,0.0,65,0.00,,---,0.00,VWS V13.01,2013-07-16 07:21:00,
2013-07-16 03:26:00,71.4,59.0,18.71,North,357,0.0,0.0,65,0.00,,---,0.00,VWS V13.01,2013-07-16 07:26:00,
2013-07-16 03:31:00,71.4,59.0,18.71,North,357,0.0,0.0,65,0.00,,---,0.00,VWS V13.01,2013-07-16 07:31:00,
2013-07-16 03:36:00,71.6,58.8,18.71,North,357,0.0,0.0,64,0.00,,---,0.00,VWS V13.01,2013-07-16 07:36:00,
2013-07-16 03:41:00,71.4,58.2,18.71,North,357,0.0,0.0,63,0.00,,---,0.00,VWS V13.01,2013-07-16 07:41:00,
2013-07-16 03:46:00,71.4,58.2,18.71,North,357,0.0,0.0,63,0.00,,---,0.00,VWS V13.01,2013-07-16 07:46:00,
2013-07-16 03:51:00,71.1,58.3,18.71,North,357,0.0,0.0,64,0.00,,---,0.00,VWS V13.01,2013-07-16 07:51:00,
2013-07-16 03:56:00,71.1,58.3,18.71,North,357,0.0,0.0,64,0.00,,---,0.00,VWS V13.01,2013-07-16 07:56:00,
2013-07-16 04:01:00,70.7,57.9,18.71,North,357,0.0,0.0,64,0.00,,---,0.00,VWS V13.01,2013-07-16 08:01:00,
2013-07-16 04:06:00,70.7,57.9,18.71,North,357,0.0,0.0,64,0.00,,---,0.00,VWS V13.01,2013-07-16 08:06:00,
2013-07-16 04:11:00,70.5,58.2,18.71,North,357,0.0,0.0,65,0.00,,---,0.00,VWS V13.01,2013-07-16 08:11:00,
2013-07-16 04:16:00,70.5,58.2,18.71,North,357,0.0,0.0,65,0.00,,---,0.00,VWS V13.01,2013-07-16 08:16:00,
2013-07-16 04:21:00,70.3,58.0,18.71,North,357,0.0,0.0,65,0.00,,---,0.00,VWS V13.01,2013-07-16 08:21:00,
2013-07-16 04:26:00,70.3,58.0,18.71,North,357,0.0,0.0,65,0.00,,---,0.00,VWS V13.01,2013-07-16 08:26:00,
2013-07-16 04:31:00,70.3,58.0,18.71,North,357,0.0,0.0,65,0.00,,---,0.00,VWS V13.01,2013-07-16 08:31:00,
2013-07-16 04:36:00,70.3,58.0,18.71,North,357,0.0,0.0,65,0.00,,---,0.00,VWS V13.01,2013-07-16 08:36:00,
2013-07-16 04:41:00,70.3,58.0,18.71,North,357,0.0,0.0,65,0.00,,---,0.00,VWS V13.01,2013-07-16 08:41:00,
2013-07-16 04:46:00,70.2,57.9,18.71,North,357,0.0,0.0,65,0.00,,---,0.00,VWS V13.01,2013-07-16 08:46:00,
2013-07-16 04:51:00,70.2,57.9,18.71,North,357,0.0,0.0,65,0.00,,---,0.00,VWS V13.01,2013-07-16 08:51:00,
2013-07-16 04:56:00,70.2,57.9,18.71,North,357,0.0,0.0,65,0.00,,---,0.00,VWS V13.01,2013-07-16 08:56:00,
2013-07-16 05:01:00,70.2,57.9,18.71,North,357,0.0,0.0,65,0.00,,---,0.00,VWS V13.01,2013-07-16 09:01:00,
2013-07-16 05:06:00,70.2,57.9,18.71,North,357,0.0,0.0,65,0.00,,---,0.00,VWS V13.01,2013-07-16 09:06:00,
2013-07-16 05:11:00,70.2,58.3,18.71,North,357,0.0,0.0,66,0.00,,---,0.00,VWS V13.01,2013-07-16 09:11:00,
2013-07-16 05:16:00,70.0,58.1,18.71,North,357,0.0,0.0,66,0.00,,---,0.00,VWS V13.01,2013-07-16 09:16:00,
2013-07-16 05:21:00,70.0,58.1,18.71,North,357,0.0,0.0,66,0.00,,---,0.00,VWS V13.01,2013-07-16 09:21:00,
2013-07-16 05:26:00,69.8,57.9,18.71,North,357,0.0,0.0,66,0.00,,---,0.00,VWS V13.01,2013-07-16 09:26:00,
2013-07-16 05:31:00,69.8,57.9,18.71,North,357,0.0,0.0,66,0.00,,---,0.00,VWS V13.01,2013-07-16 09:31:00,
2013-07-16 05:36:00,69.6,58.2,18.71,North,357,0.0,0.0,67,0.00,,---,0.00,VWS V13.01,2013-07-16 09:36:00,
2013-07-16 05:41:00,69.6,58.2,18.71,North,357,0.0,0.0,67,0.00,,---,0.00,VWS V13.01,2013-07-16 09:41:00,
2013-07-16 05:46:00,69.8,57.9,18.71,North,357,0.0,0.0,66,0.00,,---,0.00,VWS V13.01,2013-07-16 09:46:00,
2013-07-16 05:51:00,69.8,57.9,18.71,North,357,0.0,0.0,66,0.00,,---,0.00,VWS V13.01,2013-07-16 09:51:00,
2013-07-16 05:56:00,69.6,58.2,18.71,North,357,0.0,0.0,67,0.00,,---,0.00,VWS V13.01,2013-07-16 09:56:00,
2013-07-16 06:01:00,69.6,58.2,18.71,North,357,0.0,0.0,67,0.00,,---,0.00,VWS V13.01,2013-07-16 10:01:00,
2013-07-16 06:06:00,69.6,58.2,18.71,North,357,0.0,0.0,67,0.00,,---,0.00,VWS V13.01,2013-07-16 10:06:00,
2013-07-16 06:11:00,69.6,58.2,18.71,North,357,0.0,0.0,67,0.00,,---,0.00,VWS V13.01,2013-07-16 10:11:00,
2013-07-16 06:16:00,69.6,58.2,18.71,North,357,0.0,0.0,67,0.00,,---,0.00,VWS V13.01,2013-07-16 10:16:00,
2013-07-16 06:21:00,69.4,58.4,18.71,North,357,0.0,0.0,68,0.00,,---,0.00,VWS V13.01,2013-07-16 10:21:00,
2013-07-16 06:26:00,69.4,58.4,18.71,North,357,0.0,0.0,68,0.00,,---,0.00,VWS V13.01,2013-07-16 10:26:00,
2013-07-16 06:31:00,69.3,58.3,18.71,North,357,0.0,0.0,68,0.00,,---,0.00,VWS V13.01,2013-07-16 10:31:00,
2013-07-16 06:36:00,69.4,58.8,18.71,North,357,0.0,0.0,69,0.00,,---,0.00,VWS V13.01,2013-07-16 10:36:00,
2013-07-16 06:41:00,69.4,58.8,18.71,North,357,0.0,0.0,69,0.00,,---,0.00,VWS V13.01,2013-07-16 10:41:00,
2013-07-16 06:46:00,69.4,58.8,18.71,North,357,0.0,0.0,69,0.00,,---,0.00,VWS V13.01,2013-07-16 10:46:00,
2013-07-16 06:51:00,69.4,58.8,18.71,North,357,0.0,0.0,69,0.00,,---,0.00,VWS V13.01,2013-07-16 10:51:00,
2013-07-16 06:56:00,69.4,58.8,18.71,North,357,0.0,0.0,69,0.00,,---,0.00,VWS V13.01,2013-07-16 10:56:00,
2013-07-16 07:01:00,69.4,58.8,18.71,North,357,0.0,0.0,69,0.00,,---,0.00,VWS V13.01,2013-07-16 11:01:00,
2013-07-16 07:06:00,69.4,58.4,18.71,North,357,0.0,0.0,68,0.00,,---,0.00,VWS V13.01,2013-07-16 11:06:00,
2013-07-16 07:11:00,69.4,58.4,18.71,North,357,0.0,0.0,68,0.00,,---,0.00,VWS V13.01,2013-07-16 11:11:00,
2013-07-16 07:16:00,69.4,58.4,18.71,North,357,0.0,0.0,68,0.00,,---,0.00,VWS V13.01,2013-07-16 11:16:00,
2013-07-16 07:21:00,69.6,58.6,18.71,North,357,0.0,0.0,68,0.00,,---,0.00,VWS V13.01,2013-07-16 11:21:00,
2013-07-16 07:26:00,69.6,58.6,18.71,North,357,0.0,0.0,68,0.00,,---,0.00,VWS V13.01,2013-07-16 11:26:00,
2013-07-16 07:31:00,69.8,58.8,18.71,North,357,0.0,0.0,68,0.00,,---,0.00,VWS V13.01,2013-07-16 11:31:00,
2013-07-16 07:36:00,70.0,59.0,18.71,North,357,0.0,0.0,68,0.00,,---,0.00,VWS V13.01,2013-07-16 11:36:00,
2013-07-16 07:41:00,70.2,59.1,18.71,North,357,0.0,0.0,68,0.00,,---,0.00,VWS V13.01,2013-07-16 11:41:00,
2013-07-16 07:46:00,70.3,59.3,18.71,North,357,0.0,0.0,68,0.00,,---,0.00,VWS V13.01,2013-07-16 11:46:00,
2013-07-16 07:51:00,70.3,59.3,18.71,North,357,0.0,0.0,68,0.00,,---,0.00,VWS V13.01,2013-07-16 11:51:00,
2013-07-16 07:56:00,70.5,59.5,18.71,North,357,0.0,0.0,68,0.00,,---,0.00,VWS V13.01,2013-07-16 11:56:00,
2013-07-16 08:01:00,70.9,59.8,18.71,North,357,0.0,0.0,68,0.00,,---,0.00,VWS V13.01,2013-07-16 12:01:00,
2013-07-16 08:06:00,70.9,59.8,18.71,North,357,0.0,0.0,68,0.00,,---,0.00,VWS V13.01,2013-07-16 12:06:00,
2013-07-16 08:11:00,71.4,60.3,18.71,North,357,0.0,0.0,68,0.00,,---,0.00,VWS V13.01,2013-07-16 12:11:00,
2013-07-16 08:16:00,71.8,60.2,18.71,SE,127,0.0,0.0,67,0.00,,---,0.00,VWS V13.01,2013-07-16 12:16:00,
2013-07-16 08:21:00,72.0,60.4,18.71,SE,127,0.0,0.0,67,0.00,,---,0.00,VWS V13.01,2013-07-16 12:21:00,
2013-07-16 08:26:00,72.3,60.8,18.71,SE,128,0.0,0.0,67,0.00,,---,0.00,VWS V13.01,2013-07-16 12:26:00,
2013-07-16 08:31:00,72.5,60.9,18.71,SE,128,0.0,0.0,67,0.00,,---,0.00,VWS V13.01,2013-07-16 12:31:00,
2013-07-16 08:36:00,72.9,60.8,18.71,SE,124,0.0,0.0,66,0.00,,---,0.00,VWS V13.01,2013-07-16 12:36:00,
2013-07-16 08:41:00,73.2,61.2,18.71,ESE,103,0.0,0.0,66,0.00,,---,0.00,VWS V13.01,2013-07-16 12:41:00,
2013-07-16 08:46:00,73.6,61.1,18.71,ESE,109,0.0,0.0,65,0.00,,---,0.00,VWS V13.01,2013-07-16 12:46:00,
2013-07-16 08:51:00,73.6,61.1,18.71,ESE,109,0.0,0.0,65,0.00,,---,0.00,VWS V13.01,2013-07-16 12:51:00,
2013-07-16 08:56:00,74.3,61.3,18.71,ESE,109,0.0,0.0,64,0.00,,---,0.00,VWS V13.01,2013-07-16 12:56:00,
2013-07-16 09:01:00,74.7,61.2,18.71,SW,227,0.0,0.0,63,0.00,,---,0.00,VWS V13.01,2013-07-16 13:01:00,
2013-07-16 09:06:00,75.0,61.1,18.71,ESE,103,0.0,0.0,62,0.00,,---,0.00,VWS V13.01,2013-07-16 13:06:00,
2013-07-16 09:11:00,75.2,60.4,18.71,ESE,103,0.0,0.0,60,0.00,,---,0.00,VWS V13.01,2013-07-16 13:11:00,
2013-07-16 09:16:00,75.4,60.5,18.71,ESE,103,0.0,0.0,60,0.00,,---,0.00,VWS V13.01,2013-07-16 13:16:00,
2013-07-16 09:21:00,75.6,60.2,18.71,East,83,0.0,0.0,59,0.00,,---,0.00,VWS V13.01,2013-07-16 13:21:00,
2013-07-16 09:26:00,75.9,60.1,18.71,NE,56,0.0,0.0,58,0.00,,---,0.00,VWS V13.01,2013-07-16 13:26:00,
2013-07-16 09:31:00,76.3,60.4,18.71,ENE,70,0.0,0.0,58,0.00,,---,0.00,VWS V13.01,2013-07-16 13:31:00,
2013-07-16 09:36:00,76.6,60.3,18.71,ENE,70,0.0,0.0,57,0.00,,---,0.00,VWS V13.01,2013-07-16 13:36:00,
2013-07-16 09:41:00,76.6,60.3,18.71,ENE,70,0.0,0.0,57,0.00,,---,0.00,VWS V13.01,2013-07-16 13:41:00,
2013-07-16 09:46:00,77.2,59.8,18.71,NNE,26,0.0,0.0,55,0.00,,---,0.00,VWS V13.01,2013-07-16 13:46:00,
2013-07-16 09:51:00,77.5,59.1,18.71,ESE,120,0.0,0.0,53,0.00,,---,0.00,VWS V13.01,2013-07-16 13:51:00,
2013-07-16 09:56:00,77.9,59.4,18.71,ESE,120,0.0,0.0,53,0.00,,---,0.00,VWS V13.01,2013-07-16 13:56:00,
2013-07-16 10:01:00,78.4,58.3,18.71,SE,131,0.0,0.0,50,0.00,,---,0.00,VWS V13.01,2013-07-16 14:01:00,
2013-07-16 10:06:00,79.0,58.2,18.71,ENE,75,0.0,0.0,49,0.00,,---,0.00,VWS V13.01,2013-07-16 14:06:00,
2013-07-16 10:11:00,79.5,56.3,18.71,ENE,77,0.0,0.0,45,0.00,,---,0.00,VWS V13.01,2013-07-16 14:11:00,
2013-07-16 10:16:00,79.9,56.7,18.71,ENE,77,0.0,0.0,45,0.00,,---,0.00,VWS V13.01,2013-07-16 14:16:00,
2013-07-16 10:21:00,80.6,56.7,18.71,NE,35,0.0,0.0,44,0.00,,---,0.00,VWS V13.01,2013-07-16 14:21:00,
2013-07-16 10:26:00,81.1,56.5,18.71,SSE,165,0.0,0.0,43,0.00,,---,0.00,VWS V13.01,2013-07-16 14:26:00,
2013-07-16 10:31:00,81.3,56.7,18.71,ESE,112,0.0,0.0,43,0.00,,---,0.00,VWS V13.01,2013-07-16 14:31:00,
2013-07-16 10:36:00,82.4,56.4,18.71,ESE,112,0.0,0.0,41,0.00,,---,0.00,VWS V13.01,2013-07-16 14:36:00,
2013-07-16 10:41:00,82.8,55.3,18.71,WSW,237,0.0,0.0,39,0.00,,---,0.00,VWS V13.01,2013-07-16 14:41:00,
2013-07-16 10:46:00,83.5,55.9,18.71,SSW,198,0.0,0.0,39,0.00,,---,0.00,VWS V13.01,2013-07-16 14:46:00,
2013-07-16 10:51:00,84.2,57.3,18.71,SSW,198,0.0,0.0,40,0.00,,---,0.00,VWS V13.01,2013-07-16 14:51:00,
2013-07-16 10:56:00,85.1,54.4,18.71,SW,233,0.0,0.0,35,0.00,,---,0.00,VWS V13.01,2013-07-16 14:56:00,
2013-07-16 11:01:00,85.8,55.8,18.71,SSW,205,0.0,0.0,36,0.00,,---,0.00,VWS V13.01,2013-07-16 15:01:00,
2013-07-16 11:06:00,86.7,53.4,18.71,SSW,205,0.0,0.0,32,0.00,,---,0.00,VWS V13.01,2013-07-16 15:06:00,
2013-07-16 11:11:00,87.1,52.8,18.71,SSW,205,0.0,0.0,31,0.00,,---,0.00,VWS V13.01,2013-07-16 15:11:00,
2013-07-16 11:16:00,87.6,53.3,18.71,SSW,205,0.0,0.0,31,0.00,,---,0.00,VWS V13.01,2013-07-16 15:16:00,
2013-07-16 11:21:00,88.2,53.7,18.71,SSE,155,0.0,0.0,31,0.00,,---,0.00,VWS V13.01,2013-07-16 15:21:00,
2013-07-16 11:26:00,88.7,54.2,18.71,SSE,147,0.0,0.0,31,0.00,,---,0.00,VWS V13.01,2013-07-16 15:26:00,
2013-07-16 11:31:00,89.2,54.7,18.71,South,191,0.0,0.0,31,0.00,,---,0.00,VWS V13.01,2013-07-16 15:31:00,
2013-07-16 11:36:00,89.6,52.2,18.71,South,191,0.0,0.0,28,0.00,,---,0.00,VWS V13.01,2013-07-16 15:36:00,
2013-07-16 11:41:00,90.0,53.5,18.71,South,191,0.0,0.0,29,0.00,,---,0.00,VWS V13.01,2013-07-16 15:41:00,
2013-07-16 11:46:00,90.5,54.9,18.71,SE,135,0.0,0.0,30,0.00,,---,0.00,VWS V13.01,2013-07-16 15:46:00,
2013-07-16 11:51:00,90.7,54.1,18.71,SW,235,0.0,0.0,29,0.00,,---,0.00,VWS V13.01,2013-07-16 15:51:00,
2013-07-16 11:56:00,91.0,55.3,18.71,SW,231,0.0,0.0,30,0.00,,---,0.00,VWS V13.01,2013-07-16 15:56:00,
2013-07-16 12:01:00,91.0,53.4,18.71,SW,231,3.1,3.1,28,0.00,,---,0.00,VWS V13.01,2013-07-16 16:01:00,
2013-07-16 12:06:00,91.0,52.5,18.71,SW,235,0.0,0.0,27,0.00,,---,0.00,VWS V13.01,2013-07-16 16:06:00,
2013-07-16 12:11:00,91.8,53.1,18.71,SW,235,0.0,0.0,27,0.00,,---,0.00,VWS V13.01,2013-07-16 16:11:00,
2013-07-16 12:16:00,91.8,49.9,18.71,SW,235,0.0,0.0,24,0.00,,---,0.00,VWS V13.01,2013-07-16 16:16:00,
2013-07-16 12:21:00,92.5,53.7,18.71,SSW,205,0.0,0.0,27,0.00,,---,0.00,VWS V13.01,2013-07-16 16:21:00,
2013-07-16 12:26:00,92.5,53.7,18.71,SSW,207,0.0,0.0,27,0.00,,---,0.00,VWS V13.01,2013-07-16 16:26:00,
2013-07-16 12:31:00,93.7,52.6,18.71,SSW,211,0.0,0.0,25,0.00,,---,0.00,VWS V13.01,2013-07-16 16:31:00,
2013-07-16 12:36:00,93.6,49.0,18.71,East,83,0.0,0.0,22,0.00,,---,0.00,VWS V13.01,2013-07-16 16:36:00,
2013-07-16 12:41:00,93.4,50.1,18.71,East,83,0.0,0.0,23,0.00,,---,0.00,VWS V13.01,2013-07-16 16:41:00,
2013-07-16 12:46:00,93.7,53.7,18.71,WNW,292,0.0,0.0,26,0.00,,---,0.00,VWS V13.01,2013-07-16 16:46:00,
2013-07-16 12:51:00,94.1,51.8,18.71,ESE,121,0.0,0.0,24,0.00,,---,0.00,VWS V13.01,2013-07-16 16:51:00,
2013-07-16 12:56:00,94.6,51.1,18.71,NNE,32,0.0,0.0,23,0.00,,---,0.00,VWS V13.01,2013-07-16 16:56:00,
2013-07-16 13:01:00,94.8,48.8,18.71,NNE,25,0.0,0.0,21,0.00,,---,0.00,VWS V13.01,2013-07-16 17:01:00,
2013-07-16 13:06:00,95.0,47.7,18.71,NNE,25,0.0,0.0,20,0.00,,---,0.00,VWS V13.01,2013-07-16 17:06:00,
2013-07-16 13:12:00,95.0,47.7,18.71,WSW,237,0.0,0.0,20,0.00,,---,0.00,VWS V13.01,2013-07-16 17:12:00,
2013-07-16 13:17:00,93.9,48.1,18.71,WSW,237,0.0,0.0,21,0.00,,---,0.00,VWS V13.01,2013-07-16 17:17:00,
2013-07-16 13:22:00,94.3,48.4,18.71,WSW,237,0.0,0.0,21,0.00,,---,0.00,VWS V13.01,2013-07-16 17:22:00,
2013-07-16 13:27:00,94.8,47.5,18.71,WSW,237,0.0,0.0,20,0.00,,---,0.00,VWS V13.01,2013-07-16 17:27:00,
2013-07-16 13:32:00,95.2,46.5,18.71,West,264,0.0,0.0,19,0.00,,---,0.00,VWS V13.01,2013-07-16 17:32:00,
2013-07-16 13:37:00,95.2,46.5,18.71,WSW,256,0.0,0.0,19,0.00,,---,0.00,VWS V13.01,2013-07-16 17:37:00,
2013-07-16 13:42:00,95.9,47.0,18.71,WSW,254,0.0,0.0,19,0.00,,---,0.00,VWS V13.01,2013-07-16 17:42:00,
2013-07-16 13:47:00,96.4,47.5,18.71,WSW,257,0.0,0.0,19,0.00,,---,0.00,VWS V13.01,2013-07-16 17:47:00,
2013-07-16 13:52:00,96.4,47.5,18.71,WSW,257,0.0,0.0,19,0.00,,---,0.00,VWS V13.01,2013-07-16 17:52:00,
2013-07-16 13:57:00,96.6,44.7,18.71,WSW,248,0.0,0.0,17,0.00,,---,0.00,VWS V13.01,2013-07-16 17:57:00,
2013-07-16 14:02:00,96.4,46.1,18.71,WSW,248,0.0,0.0,18,0.00,,---,0.00,VWS V13.01,2013-07-16 18:02:00,
2013-07-16 14:07:00,96.4,44.6,18.71,WSW,245,3.1,3.1,17,0.00,,---,0.00,VWS V13.01,2013-07-16 18:07:00,
2013-07-16 14:12:00,94.8,44.8,18.71,WSW,245,0.0,0.0,18,0.00,,---,0.00,VWS V13.01,2013-07-16 18:12:00,
2013-07-16 14:17:00,95.0,44.9,18.71,WSW,245,0.0,0.0,18,0.00,,---,0.00,VWS V13.01,2013-07-16 18:17:00,
2013-07-16 14:22:00,96.4,44.6,18.71,SW,235,0.0,2.2,17,0.00,,---,0.00,VWS V13.01,2013-07-16 18:22:00,
2013-07-16 14:27:00,96.4,44.6,18.71,SW,235,0.0,0.0,17,0.00,,---,0.00,VWS V13.01,2013-07-16 18:27:00,
2013-07-16 14:32:00,97.0,43.4,18.71,SW,235,0.0,0.0,16,0.00,,---,0.00,VWS V13.01,2013-07-16 18:32:00,
2013-07-16 14:37:00,97.0,43.4,18.71,SW,235,0.0,0.0,16,0.00,,---,0.00,VWS V13.01,2013-07-16 18:37:00,
2013-07-16 14:42:00,97.3,43.7,18.71,SW,235,0.0,0.0,16,0.00,,---,0.00,VWS V13.01,2013-07-16 18:42:00,
2013-07-16 14:47:00,97.7,45.6,18.71,SW,235,0.0,0.0,17,0.00,,---,0.00,VWS V13.01,2013-07-16 18:47:00,
2013-07-16 14:52:00,97.7,44.0,18.71,West,273,0.0,0.0,16,0.00,,---,0.00,VWS V13.01,2013-07-16 18:52:00,
2013-07-16 14:57:00,96.1,42.7,18.71,WSW,248,0.0,0.0,16,0.00,,---,0.00,VWS V13.01,2013-07-16 18:57:00,
2013-07-16 15:02:00,96.1,42.7,18.71,WSW,248,0.0,0.0,16,0.00,,---,0.00,VWS V13.01,2013-07-16 19:02:00,
2013-07-16 15:07:00,96.6,44.7,18.71,WSW,248,0.0,0.0,17,0.00,,---,0.00,VWS V13.01,2013-07-16 19:07:00,
2013-07-16 15:12:00,96.1,44.3,18.71,WSW,248,0.0,0.0,17,0.00,,---,0.00,VWS V13.01,2013-07-16 19:12:00,
2013-07-16 15:17:00,95.4,43.7,18.71,WSW,248,0.0,0.0,17,0.00,,---,0.00,VWS V13.01,2013-07-16 19:17:00,
2013-07-16 15:22:00,94.3,44.3,18.71,WSW,248,0.0,0.0,18,0.00,,---,0.00,VWS V13.01,2013-07-16 19:22:00,
2013-07-16 15:27:00,94.8,46.2,18.71,WSW,248,0.0,0.0,19,0.00,,---,0.00,VWS V13.01,2013-07-16 19:27:00,
2013-07-16 15:32:00,95.4,45.2,18.71,WSW,248,0.0,0.0,18,0.00,,---,0.00,VWS V13.01,2013-07-16 19:32:00,
2013-07-16 15:37:00,96.3,44.4,18.71,WSW,247,0.0,0.0,17,0.00,,---,0.00,VWS V13.01,2013-07-16 19:37:00,
2013-07-16 15:42:00,97.3,43.7,18.71,SW,229,2.7,2.7,16,0.00,,---,0.00,VWS V13.01,2013-07-16 19:42:00,
2013-07-16 15:47:00,97.7,44.0,18.71,WSW,248,0.0,0.0,16,0.00,,---,0.00,VWS V13.01,2013-07-16 19:47:00,
2013-07-16 15:52:00,98.2,46.0,18.71,SSW,210,0.0,0.0,17,0.00,,---,0.00,VWS V13.01,2013-07-16 19:52:00,
2013-07-16 15:57:00,98.4,44.5,18.71,SE,140,0.0,0.0,16,0.00,,---,0.00,VWS V13.01,2013-07-16 19:57:00,
2013-07-16 16:02:00,98.1,44.3,18.71,SSW,201,0.0,0.0,16,0.00,,---,0.00,VWS V13.01,2013-07-16 20:02:00,
2013-07-16 16:07:00,98.2,44.4,18.71,SSW,201,0.0,0.0,16,0.00,,---,0.00,VWS V13.01,2013-07-16 20:07:00,
2013-07-16 16:12:00,98.4,44.5,18.71,SSW,201,0.0,0.0,16,0.00,,---,0.00,VWS V13.01,2013-07-16 20:12:00,
2013-07-16 16:17:00,98.4,44.5,18.71,SSW,201,0.0,0.0,16,0.00,,---,0.00,VWS V13.01,2013-07-16 20:17:00,
2013-07-16 16:22:00,98.1,44.3,18.71,SSW,201,0.0,0.0,16,0.00,,---,0.00,VWS V13.01,2013-07-16 20:22:00,
2013-07-16 16:27:00,98.1,44.3,18.71,SW,230,0.0,0.0,16,0.00,,---,0.00,VWS V13.01,2013-07-16 20:27:00,
2013-07-16 16:32:00,97.9,44.1,18.71,SW,230,0.0,0.0,16,0.00,,---,0.00,VWS V13.01,2013-07-16 20:32:00,
2013-07-16 16:37:00,98.2,44.4,18.71,SW,230,0.0,0.0,16,0.00,,---,0.00,VWS V13.01,2013-07-16 20:37:00,
2013-07-16 16:42:00,98.6,43.0,18.71,SW,230,0.0,0.0,15,0.00,,---,0.00,VWS V13.01,2013-07-16 20:42:00,
2013-07-16 16:47:00,98.6,43.0,18.71,SW,230,0.0,0.0,15,0.00,,---,0.00,VWS V13.01,2013-07-16 20:47:00,
2013-07-16 16:52:00,98.8,43.2,18.71,SW,230,0.0,0.0,15,0.00,,---,0.00,VWS V13.01,2013-07-16 20:52:00,
2013-07-16 16:57:00,98.8,43.2,18.71,SW,230,0.0,0.0,15,0.00,,---,0.00,VWS V13.01,2013-07-16 20:57:00,
2013-07-16 17:02:00,98.4,39.2,18.71,SW,230,0.0,0.0,13,0.00,,---,0.00,VWS V13.01,2013-07-16 21:02:00,
2013-07-16 17:07:00,97.5,38.5,18.71,SW,230,0.0,0.0,13,0.00,,---,0.00,VWS V13.01,2013-07-16 21:07:00,
2013-07-16 17:12:00,97.5,38.5,18.71,SW,230,0.0,0.0,13,0.00,,---,0.00,VWS V13.01,2013-07-16 21:12:00,
2013-07-16 17:17:00,98.1,44.3,18.71,SW,230,0.0,0.0,16,0.00,,---,0.00,VWS V13.01,2013-07-16 21:17:00,
2013-07-16 17:22:00,98.4,44.5,18.71,SW,230,0.0,0.0,16,0.00,,---,0.00,VWS V13.01,2013-07-16 21:22:00,
2013-07-16 17:27:00,98.1,44.3,18.71,SW,230,0.0,0.0,16,0.00,,---,0.00,VWS V13.01,2013-07-16 21:27:00,
2013-07-16 17:32:00,97.9,38.8,18.71,SSE,162,0.0,0.0,13,0.00,,---,0.00,VWS V13.01,2013-07-16 21:32:00,
2013-07-16 17:37:00,97.5,38.5,18.71,SSE,162,0.0,0.0,13,0.00,,---,0.00,VWS V13.01,2013-07-16 21:37:00,
2013-07-16 17:42:00,96.8,43.3,18.71,SSE,162,0.0,0.0,16,0.00,,---,0.00,VWS V13.01,2013-07-16 21:42:00,
2013-07-16 17:47:00,96.4,44.6,18.71,SSE,162,0.0,0.0,17,0.00,,---,0.00,VWS V13.01,2013-07-16 21:47:00,
2013-07-16 17:52:00,96.4,43.0,18.71,SSE,162,0.0,0.0,16,0.00,,---,0.00,VWS V13.01,2013-07-16 21:52:00,
2013-07-16 17:57:00,96.4,43.0,18.71,SSE,162,0.0,0.0,16,0.00,,---,0.00,VWS V13.01,2013-07-16 21:57:00,
2013-07-16 18:02:00,96.6,44.7,18.71,SSE,162,0.0,0.0,17,0.00,,---,0.00,VWS V13.01,2013-07-16 22:02:00,
2013-07-16 18:07:00,96.4,43.0,18.71,SSE,162,0.0,0.0,16,0.00,,---,0.00,VWS V13.01,2013-07-16 22:07:00,
2013-07-16 18:12:00,95.7,44.0,18.71,SSE,162,0.0,0.0,17,0.00,,---,0.00,VWS V13.01,2013-07-16 22:12:00,
2013-07-16 18:17:00,95.4,43.7,18.71,SSE,162,0.0,0.0,17,0.00,,---,0.00,VWS V13.01,2013-07-16 22:17:00,
2013-07-16 18:22:00,95.0,43.4,18.71,SSE,162,0.0,0.0,17,0.00,,---,0.00,VWS V13.01,2013-07-16 22:22:00,
2013-07-16 18:27:00,94.8,44.8,18.71,SSE,162,0.0,0.0,18,0.00,,---,0.00,VWS V13.01,2013-07-16 22:27:00,
2013-07-16 18:32:00,93.4,43.6,18.71,SSE,162,0.0,0.0,18,0.00,,---,0.00,VWS V13.01,2013-07-16 22:32:00,
2013-07-16 18:37:00,93.4,43.6,18.71,SSE,162,0.0,0.0,18,0.00,,---,0.00,VWS V13.01,2013-07-16 22:37:00,
2013-07-16 18:42:00,92.1,44.0,18.71,SSE,162,0.0,0.0,19,0.00,,---,0.00,VWS V13.01,2013-07-16 22:42:00,
2013-07-16 18:47:00,91.4,44.7,18.71,SSE,162,0.0,0.0,20,0.00,,---,0.00,VWS V13.01,2013-07-16 22:47:00,
2013-07-16 18:52:00,91.0,45.7,18.71,SSE,162,0.0,0.0,21,0.00,,---,0.00,VWS V13.01,2013-07-16 22:52:00,
2013-07-16 18:57:00,90.5,47.7,18.71,SSE,162,0.0,0.0,23,0.00,,---,0.00,VWS V13.01,2013-07-16 22:57:00,
2013-07-16 19:02:00,90.3,47.5,18.71,SSE,162,0.0,0.0,23,0.00,,---,0.00,VWS V13.01,2013-07-16 23:02:00,
2013-07-16 19:07:00,89.8,50.4,18.71,SSE,162,0.0,0.0,26,0.00,,---,0.00,VWS V13.01,2013-07-16 23:07:00,
2013-07-16 19:12:00,89.4,52.1,18.71,SSE,162,0.0,0.0,28,0.00,,---,0.00,VWS V13.01,2013-07-16 23:12:00,
2013-07-16 19:17:00,89.2,51.9,18.71,SSE,162,0.0,0.0,28,0.00,,---,0.00,VWS V13.01,2013-07-16 23:17:00,
2013-07-16 19:22:00,89.1,51.8,18.71,SSE,162,0.0,0.0,28,0.00,,---,0.00,VWS V13.01,2013-07-16 23:22:00,
2013-07-16 19:27:00,88.5,52.2,18.71,SSE,162,0.0,0.0,29,0.00,,---,0.00,VWS V13.01,2013-07-16 23:27:00,
2013-07-16 19:32:00,88.0,51.8,18.71,SSE,162,0.0,0.0,29,0.00,,---,0.00,VWS V13.01,2013-07-16 23:32:00,
2013-07-16 19:37:00,87.6,52.4,18.71,SSE,162,0.0,0.0,30,0.00,,---,0.00,VWS V13.01,2013-07-16 23:37:00,
2013-07-16 19:42:00,87.1,51.9,18.71,SSE,162,0.0,0.0,30,0.00,,---,0.00,VWS V13.01,2013-07-16 23:42:00,
2013-07-16 19:47:00,87.1,51.9,18.71,SSE,162,0.0,0.0,30,0.00,,---,0.00,VWS V13.01,2013-07-16 23:47:00,
2013-07-16 19:52:00,85.8,52.6,18.71,SSE,162,0.0,0.0,32,0.00,,---,0.00,VWS V13.01,2013-07-16 23:52:00,
2013-07-16 19:57:00,85.5,53.1,18.71,SSE,162,0.0,0.0,33,0.00,,---,0.00,VWS V13.01,2013-07-16 23:57:00,
2013-07-16 20:02:00,85.1,52.0,18.71,SSE,162,0.0,0.0,32,0.00,,---,0.00,VWS V13.01,2013-07-17 00:02:00,
2013-07-16 20:07:00,85.1,52.8,18.71,SSE,162,0.0,0.0,33,0.00,,---,0.00,VWS V13.01,2013-07-17 00:07:00,
2013-07-16 20:12:00,85.1,54.4,18.71,SSE,162,0.0,0.0,35,0.00,,---,0.00,VWS V13.01,2013-07-17 00:12:00,
2013-07-16 20:17:00,85.1,54.4,18.71,SSE,162,0.0,0.0,35,0.00,,---,0.00,VWS V13.01,2013-07-17 00:17:00,
2013-07-16 20:22:00,84.6,53.9,18.71,SSE,162,0.0,0.0,35,0.00,,---,0.00,VWS V13.01,2013-07-17 00:22:00,
2013-07-16 20:27:00,84.4,55.3,18.71,SSE,162,0.0,0.0,37,0.00,,---,0.00,VWS V13.01,2013-07-17 00:27:00,
2013-07-16 20:32:00,83.7,56.1,18.71,SSE,162,0.0,0.0,39,0.00,,---,0.00,VWS V13.01,2013-07-17 00:32:00,
2013-07-16 20:37:00,83.3,56.5,18.71,SSE,162,0.0,0.0,40,0.00,,---,0.00,VWS V13.01,2013-07-17 00:37:00,
2013-07-16 20:42:00,82.8,56.0,18.71,SSE,162,0.0,0.0,40,0.00,,---,0.00,VWS V13.01,2013-07-17 00:42:00,
2013-07-16 20:47:00,82.2,55.5,18.71,South,182,0.0,0.0,40,0.00,,---,0.00,VWS V13.01,2013-07-17 00:47:00,
2013-07-16 20:52:00,82.2,54.8,18.71,South,182,0.0,0.0,39,0.00,,---,0.00,VWS V13.01,2013-07-17 00:52:00,
2013-07-16 20:57:00,82.0,55.4,18.71,South,182,0.0,0.0,40,0.00,,---,0.00,VWS V13.01,2013-07-17 00:57:00,
2013-07-16 21:02:00,82.0,55.4,18.71,South,182,0.0,0.0,40,0.00,,---,0.00,VWS V13.01,2013-07-17 01:02:00,
2013-07-16 21:07:00,81.7,55.0,18.71,South,182,0.0,0.0,40,0.00,,---,0.00,VWS V13.01,2013-07-17 01:07:00,
2013-07-16 21:12:00,81.7,55.0,18.71,South,182,0.0,0.0,40,0.00,,---,0.00,VWS V13.01,2013-07-17 01:12:00,
2013-07-16 21:17:00,81.5,54.9,18.71,South,182,0.0,0.0,40,0.00,,---,0.00,VWS V13.01,2013-07-17 01:17:00,
2013-07-16 21:22:00,81.5,54.9,18.71,South,182,0.0,0.0,40,0.00,,---,0.00,VWS V13.01,2013-07-17 01:22:00,
2013-07-16 21:27:00,81.5,55.5,18.71,South,182,0.0,0.0,41,0.00,,---,0.00,VWS V13.01,2013-07-17 01:27:00,
2013-07-16 21:32:00,81.0,55.1,18.71,South,182,0.0,0.0,41,0.00,,---,0.00,VWS V13.01,2013-07-17 01:32:00,
2013-07-16 21:37:00,80.8,55.6,18.71,South,182,0.0,0.0,42,0.00,,---,0.00,VWS V13.01,2013-07-17 01:37:00,
2013-07-16 21:42:00,80.4,55.9,18.71,South,182,0.0,0.0,43,0.00,,---,0.00,VWS V13.01,2013-07-17 01:42:00,
2013-07-16 21:47:00,80.4,56.5,18.71,South,182,0.0,0.0,44,0.00,,---,0.00,VWS V13.01,2013-07-17 01:47:00,
2013-07-16 21:52:00,80.2,56.4,18.71,South,182,0.0,0.0,44,0.00,,---,0.00,VWS V13.01,2013-07-17 01:52:00,
2013-07-16 21:57:00,80.1,56.2,18.71,South,182,0.0,0.0,44,0.00,,---,0.00,VWS V13.01,2013-07-17 01:57:00,
2013-07-16 22:02:00,79.9,56.7,18.71,South,182,0.0,0.0,45,0.00,,---,0.00,VWS V13.01,2013-07-17 02:02:00,
2013-07-16 22:07:00,79.9,56.0,18.71,South,182,0.0,0.0,44,0.00,,---,0.00,VWS V13.01,2013-07-17 02:07:00,
2013-07-16 22:12:00,79.7,55.9,18.71,South,182,0.0,0.0,44,0.00,,---,0.00,VWS V13.01,2013-07-17 02:12:00,
2013-07-16 22:17:00,79.7,56.5,18.71,South,182,0.0,0.0,45,0.00,,---,0.00,VWS V13.01,2013-07-17 02:17:00,
2013-07-16 22:23:00,79.5,57.0,18.71,South,182,0.0,0.0,46,0.00,,---,0.00,VWS V13.01,2013-07-17 02:23:00,
2013-07-16 22:28:00,79.3,56.8,18.71,South,182,0.0,0.0,46,0.00,,---,0.00,VWS V13.01,2013-07-17 02:28:00,
2013-07-16 22:33:00,79.2,56.0,18.71,South,182,0.0,0.0,45,0.00,,---,0.00,VWS V13.01,2013-07-17 02:33:00,
2013-07-16 22:38:00,79.2,56.6,18.71,South,182,0.0,0.0,46,0.00,,---,0.00,VWS V13.01,2013-07-17 02:38:00,
2013-07-16 22:43:00,78.8,57.5,18.71,South,182,0.0,0.0,48,0.00,,---,0.00,VWS V13.01,2013-07-17 02:43:00,
2013-07-16 22:48:00,78.4,57.1,18.71,South,182,0.0,0.0,48,0.00,,---,0.00,VWS V13.01,2013-07-17 02:48:00,
2013-07-16 22:53:00,78.4,57.7,18.71,South,182,0.0,0.0,49,0.00,,---,0.00,VWS V13.01,2013-07-17 02:53:00,
2013-07-16 22:58:00,78.4,57.7,18.71,South,182,0.0,0.0,49,0.00,,---,0.00,VWS V13.01,2013-07-17 02:58:00,
2013-07-16 23:03:00,78.3,58.1,18.71,South,182,0.0,0.0,50,0.00,,---,0.00,VWS V13.01,2013-07-17 03:03:00,
2013-07-16 23:08:00,78.3,58.1,18.71,South,182,0.0,0.0,50,0.00,,---,0.00,VWS V13.01,2013-07-17 03:08:00,
2013-07-16 23:13:00,78.3,57.5,18.71,South,182,0.0,0.0,49,0.00,,---,0.00,VWS V13.01,2013-07-17 03:13:00,
2013-07-16 23:18:00,78.3,57.5,18.71,South,182,0.0,0.0,49,0.00,,---,0.00,VWS V13.01,2013-07-17 03:18:00,
2013-07-16 23:23:00,78.3,57.5,18.71,South,182,0.0,0.0,49,0.00,,---,0.00,VWS V13.01,2013-07-17 03:23:00,
2013-07-16 23:28:00,78.1,57.4,18.71,South,182,0.0,0.0,49,0.00,,---,0.00,VWS V13.01,2013-07-17 03:28:00,
2013-07-16 23:33:00,77.9,56.7,18.71,South,182,0.0,0.0,48,0.00,,---,0.00,VWS V13.01,2013-07-17 03:33:00,
2013-07-16 23:38:00,77.9,56.7,18.71,South,182,0.0,0.0,48,0.00,,---,0.00,VWS V13.01,2013-07-17 03:38:00,
2013-07-16 23:43:00,77.7,56.5,18.71,South,182,0.0,0.0,48,0.00,,---,0.00,VWS V13.01,2013-07-17 03:43:00,
2013-07-16 23:48:00,77.5,56.9,18.71,South,182,0.0,0.0,49,0.00,,---,0.00,VWS V13.01,2013-07-17 03:48:00,
2013-07-16 23:53:00,77.5,56.3,18.71,South,182,0.0,0.0,48,0.00,,---,0.00,VWS V13.01,2013-07-17 03:53:00,
2013-07-16 23:58:00,77.5,55.7,18.71,South,182,0.0,0.0,47,0.00,,---,0.00,VWS V13.01,2013-07-17 03:58:00,